Temp
-6 -6 -6 -7 -7 -7 -7 -7 -6 -8 -7 -7 -8 -8 -7 -8 -8 -8 -8 -8 -8 -8 -9 -9 -9 -8 -8 -9 -9 -9 -9 -9 -9 -10 -10 -10 -10 -10 -10 -10 -10 -10 -10 -11 -11 -11 -11 -11 -11
-6 -6 -6 -6 -7 -8 -8 -7 -7 -6 -7 -7 -8 -8 -7 -7 -8 -8 -8 -8 -8 -8 -8 -9 -9 -8 -8 -8 -9 -9 -9 -9 -9 -9 -10 -10 -10 -10 -10 -10 -10 -10 -11 -11 -11 -11 -11 -11 -11
-6 -6 -6 -6 -7 -7 -8 -8 -7 -6 -7 -7 -7 -8 -7 -8 -8 -8 -8 -8 -8 -8 -8 -8 -9 -8 -8 -8 -9 -9 -9 -9 -9 -10 -10 -10 -10 -10 -10 -10 -10 -10 -10 -11 -11 -11 -11 -12 -12
-6 -6 -6 -7 -7 -7 -7 -8 -6 -7 -7 -7 -9 -8 -7 -8 -8 -8 -8 -8 -8 -8 -8 -8 -8 -8 -8 -8 -8 -9 -9 -9 -9 -9 -10 -10 -10 -10 -10 -10 -11 -11 -11 -11 -11 -11 -11 -11 -11
-6 -6 -7 -7 -7 -7 -7 -7 -7 -7 -7 -7 -8 -9 -7 -8 -8 -8 -8 -8 -8 -8 -8 -8 -8 -8 -8 -8 -8 -9 -9 -9 -9 -10 -10 -10 -10 -10 -10 -10 -11 -11 -11 -11 -11 -11 -11 -11 -11
-7 -6 -7 -7 -7 -7 -7 -7 -7 -7 -7 -7 -8 -8 -5 -8 -8 -8 -8 -8 -7 -7 -8 -8 -8 -8 -9 -8 -8 -8 -9 -9 -9 -10 -10 -10 -10 -10 -10 -10 -11 -10 -11 -11 -11 -11 -11 -11 -11
-7 -6 -7 -7 -7 -7 -6 -7 -7 -7 -7 -8 -8 -8 -6 -7 -8 -8 -8 -8 -8 -7 -8 -8 -8 -9 -9 -9 -9 -8 -9 -9 -9 -9 -10 -10 -10 -10 -10 -10 -10 -10 -11 -11 -11 -11 -11 -11 -11
-7 -6 -6 -7 -8 -8 -6 -6 -7 -7 -7 -7 -7 -8 -7 -7 -7 -8 -8 -7 -8 -8 -8 -8 -8 -8 -9 -9 -8 -9 -9 -9 -9 -9 -9 -10 -10 -10 -10 -10 -10 -10 -10 -11 -11 -11 -11 -11 -11
-7 -6 -7 -7 -8 -8 -7 -6 -7 -7 -7 -7 -7 -7 -7 -7 -7 -8 -8 -7 -8 -8 -8 -8 -8 -8 -9 -8 -9 -9 -9 -9 -9 -9 -9 -9 -9 -10 -10 -10 -10 -10 -11 -10 -10 -10 -11 -11 -11
-7 -7 -7 -9 -8 -8 -5 -6 -5 -7 -7 -7 -7 -7 -7 -7 -8 -7 -7 -7 -8 -8 -8 -8 -8 -8 -8 -9 -8 -9 -8 -9 -9 -9 -9 -9 -9 -9 -10 -10 -10 -10 -10 -10 -10 -10 -11 -11 -11
-7 -7 -7 -9 -7 -7 -6 -6 -6 -6 -7 -7 -6 -6 -7 -7 -7 -7 -7 -7 -7 -8 -8 -8 -8 -8 -8 -9 -9 -9 -8 -8 -9 -9 -9 -9 -9 -9 -9 -10 -10 -10 -10 -11 -11 -10 -11 -11 -11
-7 -7 -7 -7 -6 -6 -7 -7 -6 -6 -7 -7 -6 -7 -7 -6 -7 -7 -7 -7 -7 -7 -8 -8 -8 -8 -8 -9 -9 -9 -9 -9 -9 -9 -9 -9 -9 -9 -10 -10 -10 -10 -10 -11 -11 -11 -11 -11 -11
-7 -7 -7 -7 -6 -7 -7 -6 -6 -6 -7 -6 -6 -6 -7 -7 -7 -7 -7 -7 -8 -8 -8 -8 -9 -9 -9 -8 -8 -8 -8 -8 -8 -8 -9 -9 -9 -9 -9 -10 -10 -10 -10 -10 -10 -11 -10 -10 -10
-7 -7 -7 -7 -6 -6 -7 -6 -6 -6 -7 -6 -6 -6 -7 -7 -7 -7 -7 -7 -8 -8 -7 -8 -8 -9 -9 -8 -8 -8 -8 -8 -8 -9 -8 -8 -9 -9 -9 -9 -10 -10 -10 -10 -10 -10 -10 -10 -10
-7 -7 -7 -7 -7 -7 -7 -7 -6 -7 -7 -6 -6 -6 -7 -7 -7 -7 -7 -7 -7 -8 -8 -8 -9 -8 -9 -9 -8 -8 -8 -8 -8 -9 -8 -8 -8 -9 -9 -9 -9 -10 -10 -10 -10 -10 -10 -10 -9
-8 -7 -7 -7 -7 -7 -7 -6 -7 -7 -6 -6 -7 -6 -6 -6 -7 -7 -7 -7 -7 -7 -8 -8 -8 -8 -8 -9 -8 -8 -8 -8 -8 -8 -8 -8 -8 -8 -8 -9 -9 -9 -10 -9 -10 -10 -9 -10 -10
-8 -7 -8 -7 -8 -8 -7 -7 -8 -8 -6 -7 -7 -6 -6 -6 -7 -7 -7 -7 -7 -7 -7 -8 -8 -9 -8 -8 -8 -8 -8 -8 -8 -8 -8 -8 -7 -7 -8 -8 -9 -9 -9 -9 -9 -9 -9 -9 -9
-8 -8 -8 -8 -8 -9 -8 -7 -8 -8 -7 -7 -7 -7 -7 -7 -7 -7 -7 -7 -8 -8 -8 -8 -8 -8 -8 -8 -8 -8 -8 -8 -8 -8 -8 -8 -8 -7 -8 -8 -8 -9 -9 -9 -9 -9 -9 -9 -10
-9 -9 -9 -9 -9 -11 -8 -8 -8 -8 -7 -7 -6 -7 -7 -7 -7 -7 -7 -7 -7 -8 -8 -9 -8 -8 -7 -8 -8 -8 -8 -7 -7 -8 -8 -8 -8 -7 -8 -8 -8 -9 -9 -9 -9 -9 -10 -10 -10
-9 -9 -9 -9 -10 -11 -11 -7 -8 -8 -7 -7 -7 -7 -7 -7 -7 -7 -7 -7 -7 -8 -8 -8 -8 -8 -7 -7 -8 -8 -7 -7 -7 -8 -8 -8 -8 -8 -8 -8 -8 -9 -9 -9 -9 -9 -9 -10 -11
-9 -9 -9 -9 -10 -9 -9 -8 -7 -8 -8 -7 -7 -7 -7 -7 -7 -7 -7 -7 -7 -8 -8 -8 -8 -8 -8 -7 -8 -7 -7 -7 -7 -8 -8 -8 -8 -8 -8 -8 -8 -8 -9 -9 -10 -10 -10 -10 -11
-9 -10 -10 -10 -10 -9 -10 -8 -8 -8 -8 -7 -7 -7 -7 -7 -7 -7 -7 -7 -7 -8 -8 -8 -8 -8 -8 -7 -7 -7 -7 -7 -7 -7 -7 -8 -8 -8 -8 -8 -9 -9 -9 -10 -9 -10 -10 -10 -11
-9 -11 -11 -11 -10 -10 -9 -9 -7 -8 -7 -8 -7 -7 -7 -7 -7 -7 -7 -7 -7 -7 -8 -8 -8 -8 -8 -7 -7 -7 -7 -7 -7 -7 -7 -8 -8 -9 -9 -9 -9 -10 -10 -10 -10 -10 -10 -11 -11
-10 -11 -11 -11 -10 -10 -7 -9 -7 -7 -7 -8 -8 -7 -7 -7 -7 -7 -7 -7 -7 -7 -7 -7 -8 -8 -8 -8 -7 -7 -7 -7 -7 -8 -8 -8 -8 -9 -9 -9 -9 -9 -10 -10 -10 -11 -11 -11 -11
-11 -11 -11 -10 -10 -7 -8 -10 -7 -7 -8 -8 -8 -7 -7 -7 -8 -7 -7 -7 -7 -7 -7 -8 -8 -7 -8 -8 -7 -7 -8 -7 -7 -8 -8 -9 -9 -9 -9 -9 -9 -10 -10 -11 -11 -11 -12 -12 -12
-11 -11 -11 -10 -10 -8 -10 -8 -7 -7 -9 -9 -8 -7 -7 -8 -8 -8 -7 -7 -7 -7 -7 -7 -7 -7 -8 -8 -8 -7 -8 -8 -8 -9 -9 -10 -10 -10 -10 -10 -10 -10 -11 -11 -11 -11 -12 -12 -12
-10 -13 -9 -11 -11 -11 -10 -9 -9 -9 -9 -9 -8 -8 -8 -8 -8 -8 -8 -7 -7 -7 -7 -7 -7 -8 -8 -8 -8 -8 -8 -9 -9 -9 -9 -10 -10 -10 -11 -11 -11 -11 -11 -11 -12 -12 -13 -13 -13
-12 -11 -12 -13 -11 -10 -9 -9 -8 -10 -10 -10 -9 -9 -8 -8 -8 -8 -8 -8 -8 -8 -8 -8 -8 -8 -8 -8 -8 -8 -9 -9 -9 -10 -10 -10 -10 -11 -11 -11 -12 -12 -12 -12 -12 -13 -13 -13 -13
-12 -11 -13 -14 -13 -11 -9 -9 -9 -9 -10 -10 -9 -8 -8 -8 -8 -8 -9 -8 -8 -8 -8 -8 -8 -8 -8 -8 -8 -8 -9 -10 -10 -10 -10 -11 -11 -12 -12 -12 -12 -13 -13 -13 -13 -13 -13 -13 -13
-15 -13 -13 -13 -10 -10 -10 -9 -10 -9 -9 -10 -10 -8 -8 -8 -8 -8 -9 -8 -8 -9 -8 -8 -8 -9 -9 -9 -9 -9 -9 -10 -10 -10 -11 -11 -12 -13 -13 -13 -14 -14 -14 -14 -14 -13 -13 -13 -13
Height
5909 5910 5911 5912 5915 5914 5916 5918 5915 5910 5909 5909 5907 5904 5905 5904 5903 5903 5901 5897 5895 5892 5890 5888 5885 5882 5879 5877 5875 5873 5872 5870 5869 5867 5866 5866 5866 5866 5866 5865 5865 5864 5864 5863 5863 5863 5864 5865 5866
5908 5910 5912 5912 5914 5913 5912 5915 5914 5912 5909 5908 5906 5901 5902 5902 5901 5901 5899 5897 5895 5893 5891 5889 5887 5883 5880 5879 5876 5874 5872 5871 5870 5869 5867 5867 5867 5867 5867 5867 5867 5867 5866 5865 5865 5865 5866 5866 5868
5907 5908 5911 5913 5913 5913 5914 5916 5910 5911 5908 5906 5904 5902 5899 5899 5899 5897 5898 5896 5895 5893 5891 5889 5887 5885 5882 5880 5877 5875 5873 5872 5871 5870 5868 5868 5868 5868 5868 5869 5868 5868 5868 5868 5868 5867 5867 5867 5868
5905 5908 5909 5911 5912 5915 5914 5910 5911 5911 5907 5907 5904 5897 5900 5898 5897 5897 5896 5895 5894 5893 5891 5889 5887 5885 5883 5880 5878 5876 5874 5873 5872 5871 5870 5869 5869 5869 5869 5870 5870 5870 5870 5870 5869 5870 5869 5869 5869
5903 5905 5907 5909 5911 5910 5911 5910 5912 5909 5907 5905 5905 5897 5898 5898 5897 5896 5895 5894 5893 5892 5891 5889 5887 5885 5884 5881 5879 5877 5875 5874 5873 5871 5871 5869 5869 5869 5870 5870 5871 5871 5871 5871 5871 5870 5871 5870 5870
5900 5902 5905 5908 5912 5908 5908 5910 5909 5909 5906 5905 5904 5897 5896 5898 5897 5895 5893 5892 5892 5891 5890 5888 5887 5886 5884 5882 5879 5877 5876 5875 5873 5872 5872 5871 5870 5870 5870 5870 5871 5871 5872 5871 5871 5871 5872 5872 5871
5896 5899 5902 5905 5914 5907 5903 5907 5907 5907 5905 5903 5903 5899 5894 5896 5895 5894 5892 5890 5890 5890 5889 5887 5885 5884 5883 5882 5880 5878 5876 5875 5874 5873 5871 5871 5871 5870 5870 5870 5871 5872 5872 5872 5872 5871 5871 5872 5872
5892 5895 5899 5902 5907 5907 5900 5903 5904 5904 5901 5902 5901 5899 5891 5895 5894 5893 5891 5889 5888 5888 5888 5886 5885 5883 5882 5881 5880 5878 5876 5875 5873 5873 5872 5871 5871 5871 5870 5871 5871 5872 5872 5872 5872 5871 5871 5871 5871
5889 5892 5897 5901 5904 5901 5897 5899 5901 5902 5900 5901 5899 5894 5896 5893 5892 5891 5890 5888 5888 5886 5886 5885 5884 5882 5880 5879 5879 5877 5876 5874 5873 5872 5872 5872 5872 5871 5871 5871 5872 5872 5872 5873 5872 5873 5872 5872 5872
5883 5888 5894 5894 5897 5891 5892 5897 5895 5901 5899 5898 5897 5896 5893 5892 5890 5889 5889 5889 5886 5886 5885 5884 5883 5881 5879 5878 5877 5875 5874 5873 5872 5871 5872 5872 5871 5871 5871 5870 5871 5871 5872 5872 5872 5872 5872 5872 5872
5878 5882 5887 5882 5887 5889 5890 5891 5893 5896 5896 5896 5893 5893 5894 5891 5890 5887 5886 5886 5888 5885 5884 5883 5881 5879 5878 5876 5875 5873 5872 5871 5870 5870 5870 5870 5871 5871 5870 5870 5870 5870 5871 5871 5872 5872 5873 5873 5872
5871 5876 5876 5877 5881 5884 5886 5887 5889 5892 5894 5892 5892 5891 5890 5890 5889 5886 5886 5882 5879 5883 5881 5880 5880 5878 5876 5874 5873 5872 5870 5868 5868 5868 5868 5869 5870 5870 5870 5870 5869 5869 5869 5870 5871 5871 5872 5872 5872
5864 5868 5870 5871 5875 5880 5880 5882 5885 5887 5890 5889 5889 5890 5890 5888 5886 5886 5884 5882 5879 5873 5880 5877 5877 5876 5874 5872 5872 5870 5869 5867 5866 5866 5865 5867 5868 5868 5869 5870 5869 5868 5868 5869 5869 5870 5871 5871 5872
5856 5859 5863 5866 5870 5873 5874 5877 5879 5882 5885 5885 5886 5887 5887 5887 5885 5884 5882 5881 5879 5874 5876 5876 5874 5872 5870 5869 5867 5867 5867 5865 5864 5863 5863 5864 5865 5866 5865 5867 5868 5867 5867 5867 5867 5868 5868 5869 5870
5850 5853 5858 5861 5865 5868 5867 5870 5874 5878 5877 5879 5881 5883 5884 5883 5882 5881 5879 5879 5878 5875 5868 5873 5870 5870 5867 5865 5863 5862 5863 5863 5862 5862 5861 5861 5862 5862 5862 5863 5865 5865 5865 5866 5865 5865 5865 5866 5866
5842 5847 5850 5857 5857 5860 5858 5866 5869 5869 5870 5873 5874 5877 5879 5879 5878 5877 5875 5875 5874 5872 5865 5870 5868 5865 5865 5862 5860 5858 5858 5857 5858 5858 5858 5858 5858 5858 5859 5859 5861 5861 5862 5862 5862 5861 5862 5862 5863
5835 5839 5842 5850 5851 5849 5851 5860 5862 5861 5863 5868 5868 5871 5874 5873 5873 5873 5872 5871 5871 5869 5865 5863 5865 5862 5860 5858 5856 5854 5853 5854 5852 5853 5854 5854 5854 5854 5854 5855 5857 5857 5857 5858 5858 5858 5858 5858 5858
5829 5830 5836 5841 5846 5841 5842 5849 5854 5854 5857 5861 5863 5866 5868 5868 5868 5868 5868 5867 5866 5864 5861 5855 5858 5858 5856 5855 5852 5850 5849 5848 5848 5848 5848 5849 5849 5849 5850 5850 5851 5853 5853 5854 5854 5854 5855 5855 5855
5819 5822 5828 5834 5839 5833 5835 5838 5845 5848 5849 5854 5857 5860 5862 5863 5862 5863 5863 5862 5861 5858 5856 5853 5845 5850 5851 5851 5848 5845 5843 5842 5843 5843 5844 5844 5844 5844 5845 5846 5846 5848 5849 5848 5849 5848 5848 5848 5846
5809 5813 5819 5823 5827 5827 5823 5831 5837 5838 5844 5848 5850 5852 5854 5857 5856 5857 5857 5857 5856 5854 5852 5850 5847 5838 5842 5843 5841 5838 5837 5837 5837 5837 5837 5838 5839 5838 5839 5839 5841 5842 5842 5842 5842 5841 5840 5841 5840
5800 5805 5812 5814 5818 5819 5816 5821 5829 5833 5836 5839 5844 5846 5847 5849 5850 5849 5849 5851 5851 5849 5848 5846 5844 5842 5836 5836 5835 5833 5831 5830 5830 5830 5830 5830 5832 5832 5834 5834 5834 5835 5836 5836 5835 5834 5833 5835 5833
5793 5800 5803 5805 5805 5808 5812 5809 5818 5825 5827 5831 5837 5839 5841 5842 5844 5843 5842 5842 5845 5843 5842 5840 5838 5834 5831 5829 5828 5828 5824 5823 5822 5823 5824 5825 5825 5825 5827 5828 5829 5828 5829 5829 5830 5830 5828 5828 5827
5786 5789 5791 5793 5796 5798 5803 5801 5812 5818 5822 5824 5828 5833 5834 5835 5836 5837 5837 5834 5837 5837 5834 5832 5830 5828 5825 5822 5820 5820 5817 5816 5814 5815 5816 5816 5818 5819 5819 5821 5821 5821 5821 5821 5821 5821 5822 5821 5819
5774 5776 5780 5784 5787 5782 5799 5796 5800 5809 5816 5820 5820 5823 5826 5828 5828 5828 5828 5833 5829 5830 5827 5825 5824 5821 5817 5815 5812 5811 5810 5807 5807 5807 5807 5809 5811 5812 5812 5812 5814 5814 5813 5813 5813 5813 5813 5812 5811
5760 5764 5769 5772 5771 5772 5790 5784 5790 5806 5806 5810 5810 5815 5818 5819 5820 5820 5821 5823 5822 5822 5818 5817 5816 5813 5809 5807 5804 5802 5801 5800 5798 5798 5799 5800 5802 5803 5804 5805 5805 5805 5806 5804 5803 5803 5801 5801 5800
5748 5751 5756 5760 5763 5771 5776 5774 5783 5798 5797 5795 5800 5808 5806 5807 5813 5812 5813 5815 5815 5814 5812 5810 5807 5805 5801 5799 5796 5793 5792 5791 5790 5789 5790 5790 5792 5794 5794 5796 5796 5796 5795 5794 5793 5793 5792 5790 5789
5739 5733 5756 5751 5755 5755 5763 5771 5777 5783 5788 5786 5790 5796 5798 5796 5802 5803 5803 5804 5808 5807 5805 5803 5801 5797 5793 5790 5786 5784 5782 5782 5781 5781 5781 5782 5782 5783 5783 5784 5784 5784 5784 5784 5784 5783 5781 5780 5779
5719 5740 5735 5734 5740 5745 5753 5761 5768 5777 5778 5779 5779 5783 5786 5789 5789 5792 5793 5794 5797 5797 5796 5795 5792 5789 5786 5781 5778 5776 5774 5772 5772 5772 5771 5773 5772 5773 5774 5775 5775 5775 5775 5775 5773 5772 5771 5770 5769
5703 5713 5718 5724 5729 5736 5742 5746 5758 5767 5771 5765 5766 5769 5775 5780 5780 5780 5781 5783 5787 5787 5787 5785 5783 5780 5777 5773 5769 5766 5765 5764 5764 5765 5764 5764 5764 5764 5765 5765 5765 5765 5765 5764 5763 5761 5759 5757 5754
5692 5696 5710 5708 5719 5724 5730 5732 5748 5751 5756 5757 5754 5757 5764 5766 5768 5769 5768 5769 5776 5776 5776 5774 5771 5768 5765 5762 5760 5757 5755 5754 5755 5754 5754 5754 5754 5754 5753 5754 5754 5753 5752 5751 5750 5748 5745 5743 5740
Wind_Speed
6 4 2 5 11 11 8 13 11 9 5 5 7 9 5 3 4 10 13 16 17 19 20 23 25 27 26 24 16 15 11 10 12 12 12 13 10 8 9 10 9 10 9 9 10 11 12 12 12
9 6 4 5 10 8 11 17 13 17 11 10 9 16 11 10 11 12 14 15 16 17 19 20 23 26 26 24 21 16 12 10 11 12 12 12 13 9 8 9 9 9 10 8 9 10 11 12 11
11 8 6 7 8 11 6 8 19 13 11 14 15 15 15 17 15 15 15 15 14 15 17 18 20 23 25 25 23 18 14 11 10 11 11 12 13 11 8 8 9 8 8 9 8 9 10 11 10
14 11 9 5 8 14 15 20 17 13 12 8 11 21 12 20 18 17 16 15 15 13 15 17 19 21 23 23 22 21 17 13 8 10 11 11 11 10 9 8 7 8 8 8 9 8 8 9 8
17 14 11 7 5 24 22 29 16 16 14 16 12 21 22 19 19 18 16 15 14 13 13 14 17 19 21 21 22 21 18 15 8 7 8 9 9 9 9 8 7 7 7 7 8 9 8 7 7
21 17 14 0 8 29 25 18 17 14 17 16 13 23 17 17 19 19 18 17 13 14 13 13 16 18 20 21 20 21 19 15 10 6 6 8 8 8 8 7 7 7 6 6 7 9 8 7 7
24 22 17 14 8 28 30 14 16 15 17 16 15 19 25 20 20 20 17 19 17 12 12 12 16 19 20 20 20 20 19 15 11 6 4 5 6 6 5 5 6 8 7 7 6 6 6 6 6
28 25 20 20 15 24 31 19 16 16 20 16 18 17 27 19 19 16 17 19 18 14 10 11 14 18 21 22 20 18 17 15 11 8 6 4 4 4 5 6 7 7 7 7 7 5 5 6 7
30 28 23 22 13 26 32 22 19 17 21 18 20 26 23 23 19 18 17 19 17 14 11 10 13 17 20 22 22 18 14 15 13 11 7 6 5 5 4 4 5 7 6 7 7 8 7 7 7
34 31 26 25 25 37 27 18 20 14 21 20 22 22 22 20 20 20 19 18 20 13 10 10 14 17 21 22 24 18 13 13 12 11 12 7 5 4 4 2 2 3 5 4 5 7 8 8 7
36 34 33 33 38 39 29 24 24 19 20 22 22 14 10 17 19 20 21 22 14 14 13 10 15 20 21 22 22 20 14 11 12 11 12 10 7 6 6 3 4 1 3 4 5 6 8 10 9
39 38 41 44 38 33 32 31 26 20 20 24 23 23 18 15 15 20 20 25 23 10 14 14 15 20 22 22 20 19 18 12 10 11 11 11 7 8 8 7 7 9 9 9 10 8 9 11 9
41 42 44 44 39 34 36 33 30 24 23 25 25 20 18 18 20 20 22 22 22 26 13 17 17 22 24 24 19 19 17 14 9 10 11 9 8 9 8 10 10 11 12 10 8 10 9 9 8
43 44 44 44 41 37 39 36 33 27 28 29 26 23 19 17 19 20 22 23 22 25 20 16 22 25 25 23 20 18 17 13 9 10 11 7 9 10 10 9 11 12 11 6 6 7 9 7 7
44 43 39 41 39 38 41 39 34 32 34 32 28 25 23 20 20 19 20 23 25 26 31 20 23 23 25 25 22 20 18 13 13 10 10 10 9 11 11 9 11 12 12 10 9 10 10 8 7
46 44 43 39 41 40 46 38 36 36 35 33 32 28 24 22 20 19 19 20 22 26 36 26 24 26 25 26 26 25 23 18 13 11 12 13 10 12 12 10 12 13 12 11 12 11 10 12 12
41 43 45 41 41 45 48 40 37 39 36 30 32 28 24 24 22 20 21 19 21 22 29 32 25 28 26 28 28 28 28 23 18 15 14 16 13 14 13 13 13 15 14 13 15 14 13 13 13
39 42 41 41 37 46 49 44 39 42 38 34 32 28 25 25 24 23 21 19 20 22 25 33 32 27 29 28 29 30 29 28 23 17 18 18 16 16 15 16 15 16 16 15 18 16 17 17 16
39 40 39 37 37 42 48 45 41 42 40 34 32 29 26 25 27 24 22 23 24 25 26 29 36 29 23 23 27 31 31 30 25 24 20 21 20 18 19 19 17 18 18 19 21 21 20 21 24
42 43 41 42 39 38 45 46 39 42 37 35 31 31 28 26 27 26 23 23 24 25 27 28 28 35 28 25 27 30 31 31 28 27 23 23 24 25 23 22 21 22 21 19 21 26 25 24 26
45 44 42 46 45 50 53 51 42 39 37 36 32 30 30 27 27 29 28 25 26 29 28 28 28 29 35 33 31 30 30 30 31 29 27 28 27 28 26 27 25 26 28 28 29 30 32 30 28
47 43 44 47 51 53 51 54 47 40 38 37 33 30 30 29 29 30 34 31 26 30 29 30 32 33 36 36 35 33 32 31 31 33 30 30 29 30 29 30 29 29 31 31 32 31 32 32 34
49 46 48 50 52 53 53 57 46 41 37 35 36 29 30 30 32 33 34 36 31 30 34 35 36 37 37 36 37 34 36 31 32 31 29 31 32 31 32 33 33 33 33 36 36 34 35 36 36
54 53 53 51 52 59 49 54 52 44 38 35 37 34 31 32 36 35 37 34 38 33 35 39 40 40 40 38 36 34 37 33 32 30 30 32 34 34 34 35 35 37 38 39 39 38 38 39 40
60 57 56 56 59 58 49 55 53 40 42 38 42 38 33 34 36 38 38 37 39 37 39 41 43 44 43 43 38 35 36 36 33 34 32 32 34 35 35 36 38 39 38 40 41 41 41 42 43
68 65 63 59 61 57 52 56 53 40 32 42 47 39 39 36 32 37 38 37 39 39 41 44 45 48 46 43 39 37 36 36 37 34 33 33 34 36 37 37 38 40 41 42 42 43 43 44 44
72 66 62 62 60 58 55 56 50 46 43 49 51 43 41 44 35 36 39 40 39 41 43 42 46 45 46 44 42 39 36 36 37 37 36 36 36 38 39 40 40 41 41 42 43 44 46 48 48
75 66 65 59 65 65 64 58 58 35 29 39 48 48 48 45 42 38 39 42 42 43 44 43 46 44 43 45 43 39 39 38 39 39 40 40 40 39 40 39 39 40 43 44 46 48 50 51 53
77 77 69 62 66 66 67 66 61 52 45 54 61 60 53 47 44 44 41 45 43 44 44 45 47 46 45 43 45 41 38 41 41 41 40 40 39 37 38 40 42 44 46 47 48 50 51 53 53
66 76 67 70 76 73 68 71 55 55 57 52 56 60 55 52 51 49 50 51 45 45 45 46 50 48 48 46 44 39 36 40 45 45 44 43 41 40 42 44 45 47 49 49 50 53 54 54 56
Wind_Direction
201 186 149 94 94 84 60 256 314 343 341 355 333 333 345 11 345 353 354 6 9 10 10 21 23 24 22 15 10 10 12 27 36 37 47 50 53 59 56 58 46 55 70 83 89 95 97 96 94
214 204 184 97 113 42 121 257 293 302 313 322 326 324 343 350 360 353 2 7 12 10 9 18 24 25 26 19 16 11 9 25 28 31 39 49 51 55 51 57 57 49 57 76 97 100 97 97 93
222 220 209 144 85 24 312 216 261 305 316 334 326 310 326 342 357 355 360 3 11 8 7 7 18 23 26 24 19 13 9 21 22 27 33 39 46 45 46 47 52 54 54 64 81 101 109 109 106
224 225 225 183 125 257 238 236 278 302 312 331 338 315 340 332 344 348 351 359 360 5 5 5 11 17 22 25 21 17 9 13 17 20 28 36 36 43 44 44 45 50 54 59 69 78 102 107 112
227 228 237 217 128 261 248 253 278 293 300 314 321 289 321 322 336 342 344 350 354 1 3 1 6 11 20 25 22 22 11 9 8 14 22 32 34 34 41 40 40 36 45 57 67 64 57 82 93
227 227 229 314 346 263 273 264 271 283 294 295 306 306 325 324 331 337 338 335 353 356 359 355 358 5 15 16 22 18 15 7 3 356 9 13 27 26 30 33 38 32 26 43 56 62 58 52 52
225 226 216 148 250 257 265 266 267 276 286 285 304 301 313 336 331 330 331 326 340 358 350 353 350 356 2 11 10 16 8 7 357 339 342 357 5 23 15 20 28 32 22 14 30 42 38 47 57
226 229 224 197 199 268 263 262 269 271 271 293 294 285 303 330 322 320 321 323 332 342 349 349 350 350 352 1 4 6 3 359 349 333 311 321 340 360 350 2 19 33 30 16 9 14 15 11 14
229 229 226 224 248 258 260 262 262 269 273 280 288 285 300 312 316 312 312 317 326 329 338 344 347 347 349 354 360 360 357 351 343 328 299 291 317 333 339 356 9 22 29 22 12 358 1 1 350
230 228 225 218 212 231 257 263 273 265 271 280 277 283 299 310 313 306 304 321 321 326 327 342 342 351 349 350 353 356 350 341 335 320 304 281 283 297 309 333 32 24 22 26 15 353 344 343 346
229 229 222 219 229 236 257 260 267 268 273 279 278 287 292 308 304 301 304 316 318 322 331 323 335 336 341 341 346 350 347 329 323 316 299 276 269 274 276 241 197 182 348 325 347 339 335 334 333
232 229 228 236 242 246 253 258 262 269 270 269 275 285 302 297 304 303 297 313 320 324 319 319 328 330 336 330 335 342 345 320 317 306 300 289 269 264 266 255 232 235 281 285 280 299 312 304 308
234 232 232 238 243 244 248 254 260 267 263 263 269 275 287 299 308 304 298 304 309 316 336 320 331 323 324 323 326 327 340 333 307 295 292 283 266 255 266 263 253 240 272 295 292 283 295 298 312
235 234 235 240 243 242 248 252 257 266 262 258 262 267 271 283 298 298 296 292 302 300 323 324 330 327 319 319 315 318 329 333 304 284 283 278 269 256 260 260 257 256 263 272 272 265 273 283 308
240 243 242 244 249 247 250 250 258 261 259 256 259 261 266 280 288 293 290 291 293 297 303 313 315 328 319 315 309 311 320 319 313 275 265 269 275 264 260 267 267 253 255 259 262 260 260 269 275
239 241 242 242 248 249 251 252 254 255 256 256 259 264 269 275 281 284 297 298 289 294 295 300 306 313 322 318 309 307 313 308 296 282 249 258 273 270 263 260 259 260 259 255 253 260 265 265 271
239 241 243 241 249 254 252 254 253 251 255 249 260 265 271 276 280 279 294 300 296 290 287 296 302 304 313 318 310 305 307 304 291 284 250 245 262 269 256 252 247 252 249 254 254 250 254 259 276
242 244 243 246 245 252 253 250 250 254 251 252 252 262 267 273 278 279 288 297 301 301 301 294 298 302 299 310 309 302 301 300 289 278 256 237 245 259 251 250 240 247 253 248 251 254 260 271 272
237 240 241 244 244 254 252 252 249 250 252 250 252 257 260 267 272 280 289 292 305 307 314 304 305 300 296 299 308 300 301 297 297 282 259 244 239 246 241 244 236 244 252 258 248 257 258 267 281
234 235 236 235 223 236 251 250 246 249 250 252 257 259 261 262 270 277 288 299 302 308 309 316 308 302 302 302 306 302 298 297 292 280 268 245 239 242 234 235 244 244 246 252 247 249 261 266 274
234 236 235 237 238 243 252 252 247 250 250 249 251 254 261 263 268 273 283 297 305 307 311 309 314 311 309 304 302 301 293 288 284 278 266 248 239 243 236 238 238 242 246 252 255 256 261 266 275
238 240 240 238 239 242 248 254 248 243 249 251 250 253 259 263 266 270 278 292 306 302 306 307 310 310 310 312 303 301 289 283 284 278 274 258 247 242 244 242 246 246 251 256 256 262 266 274 275
238 238 240 241 241 245 244 253 246 246 244 255 257 249 260 263 263 265 272 284 296 298 300 307 311 311 310 302 303 297 292 281 278 276 270 260 251 247 245 247 249 254 256 256 260 263 269 274 278
234 237 239 241 245 245 242 250 246 247 249 253 254 261 260 256 262 264 268 277 282 293 297 304 306 309 311 305 299 290 285 280 273 271 263 259 252 250 248 248 250 253 258 262 264 270 270 273 280
236 237 239 240 241 242 243 250 248 246 258 256 262 256 263 262 260 266 272 275 277 288 294 300 305 308 307 308 306 292 284 277 268 263 263 260 255 254 253 253 252 255 260 262 267 271 276 279 285
236 238 237 240 242 245 250 245 248 253 258 259 251 259 266 264 263 263 266 267 272 278 286 296 304 306 307 304 304 298 290 283 267 261 258 256 257 258 258 257 256 257 259 267 269 275 280 281 283
238 238 239 243 242 244 245 247 249 251 249 259 263 261 264 272 268 267 268 270 269 273 280 290 300 304 305 306 304 299 289 280 266 260 256 255 256 256 256 257 258 260 265 270 274 277 279 283 286
241 243 243 237 241 243 243 244 247 246 262 262 263 264 265 267 272 270 269 270 270 272 278 285 296 300 307 304 304 299 288 280 266 260 258 256 255 258 260 264 268 269 271 273 274 279 285 289 292
244 238 238 246 247 245 246 246 246 248 247 257 261 264 264 265 271 271 271 270 270 271 277 283 293 297 303 305 301 302 291 283 275 264 261 259 259 262 267 269 271 272 274 277 281 284 287 289 293
250 249 246 246 248 248 249 247 248 247 250 249 257 266 271 272 270 272 273 272 272 272 278 282 295 297 302 306 305 300 295 284 279 273 264 263 263 264 266 268 270 272 276 280 283 284 286 290 290